Simultaneous Nadir Overpasses (SNOs) Predictions

Prediction of SNOs between GOES-17 and LANDSAT-8 Satellite Orbit:

Table of predicted SNOs for the next 14.0 days since TLE Epoch: 5/7/2022
Index Date Time (GOES-17) GOES-17 Lat,Lon LANDSAT-8 Lat,Lon Distance(km) Time Diff (sec)
1 05/07/2022 19:19:39 0.05,-137.19 0.08,-137.20 3.79 80
2 05/09/2022 19:10:10 0.04,-137.19 -0.57,-134.25 333.15 80
3 05/10/2022 07:28:54 -0.04,-137.19 -0.50,-139.45 256.76 80
4 05/12/2022 07:19:23 -0.04,-137.18 0.09,-136.49 78.74 80
5 05/14/2022 07:07:13 -0.04,-137.17 0.76,-133.54 413.61 80
6 05/14/2022 19:25:48 0.03,-137.16 0.38,-138.69 173.84 80
7 05/16/2022 19:16:17 0.03,-137.14 -0.24,-135.73 159.86 80
8 05/17/2022 07:35:02 -0.03,-137.14 -0.82,-140.93 430.63 80
9 05/18/2022 19:04:06 0.02,-137.10 -0.87,-132.77 492.42 80
10 05/19/2022 07:22:51 -0.02,-137.10 -0.18,-137.97 98.29 80
